NKS2210 KATL-KFLL

Flight info

Callsign NKS2210
Flight time 1h 24m
Altitude 33000
Route SMLTZ3 WALET ZPLEN TEEKY4
Aircraft A320/M-VGDW/C

Departure

Time 2026-05-03 21:24
Airport Hartsfield Jackson Atlanta International Airport (KATL)

Arrival

Time 2026-05-03 22:48
Airport Fort Lauderdale Hollywood International Airport (KFLL)
Time Latitude Longitude Altitude Speed Heading
2026-05-03 20:57 33.63996 -84.42876 1007 ft 0 kts 285°
2026-05-03 21:05 33.63993 -84.42861 1007 ft 3 kts 280°
2026-05-03 21:05 33.63991 -84.42838 1007 ft 3 kts 263°
2026-05-03 21:06 33.63995 -84.42816 1007 ft 3 kts 229°
2026-05-03 21:06 33.64006 -84.42807 1007 ft 1 kts 182°
2026-05-03 21:06 33.64008 -84.42806 1007 ft 0 kts 180°
2026-05-03 21:10 33.63988 -84.42806 1007 ft 5 kts 180°
2026-05-03 21:10 33.63933 -84.42806 1007 ft 11 kts 180°
2026-05-03 21:10 33.63840 -84.42807 1007 ft 16 kts 180°
2026-05-03 21:10 33.63732 -84.42807 1007 ft 13 kts 180°
2026-05-03 21:11 33.63667 -84.42777 1007 ft 12 kts 128°
2026-05-03 21:11 33.63654 -84.42657 1007 ft 17 kts 90°
2026-05-03 21:11 33.63654 -84.42496 1007 ft 22 kts 90°
2026-05-03 21:11 33.63654 -84.42294 1007 ft 27 kts 90°
2026-05-03 21:12 33.63627 -84.42139 1007 ft 12 kts 116°
2026-05-03 21:12 33.63586 -84.42028 1007 ft 17 kts 102°
2026-05-03 21:12 33.63580 -84.41866 1006 ft 22 kts 91°
2026-05-03 21:12 33.63581 -84.41662 1006 ft 27 kts 89°
2026-05-03 21:13 33.63580 -84.41415 1005 ft 32 kts 90°
2026-05-03 21:13 33.63581 -84.41217 1006 ft 15 kts 90°
2026-05-03 21:13 33.63582 -84.41142 1006 ft 10 kts 90°
2026-05-03 21:13 33.63582 -84.41085 1006 ft 8 kts 90°
2026-05-03 21:14 33.63582 -84.41007 1006 ft 8 kts 90°
2026-05-03 21:14 33.63582 -84.41002 1006 ft 0 kts 90°
2026-05-03 21:17 33.63582 -84.41001 1006 ft 1 kts 90°
2026-05-03 21:18 33.63582 -84.40989 1006 ft 0 kts 90°
2026-05-03 21:18 33.63582 -84.40985 1006 ft 0 kts 90°
2026-05-03 21:18 33.63582 -84.40963 1006 ft 5 kts 90°
2026-05-03 21:19 33.63565 -84.40918 1007 ft 5 kts 143°
2026-05-03 21:19 33.63564 -84.40918 1007 ft 0 kts 144°
2026-05-03 21:21 33.63550 -84.40909 1007 ft 5 kts 158°
2026-05-03 21:21 33.63487 -84.40920 1007 ft 12 kts 212°
2026-05-03 21:21 33.63471 -84.40955 1007 ft 0 kts 265°
2026-05-03 21:23 33.63469 -84.41037 1006 ft 45 kts 271°
2026-05-03 21:23 33.63470 -84.41915 1008 ft 157 kts 270°
2026-05-03 21:23 33.63476 -84.43487 1362 ft 215 kts 270°
2026-05-03 21:24 33.63439 -84.45363 2103 ft 237 kts 269°
2026-05-03 21:24 33.63398 -84.47335 2851 ft 232 kts 271°
2026-05-03 21:24 33.63397 -84.49239 3550 ft 230 kts 271°
2026-05-03 21:24 33.63410 -84.51166 4234 ft 231 kts 272°
2026-05-03 21:25 33.63426 -84.53128 4931 ft 243 kts 271°
2026-05-03 21:25 33.63441 -84.55222 5627 ft 251 kts 271°
2026-05-03 21:25 33.63449 -84.57302 6315 ft 254 kts 272°
2026-05-03 21:25 33.63453 -84.59435 6985 ft 257 kts 272°
2026-05-03 21:26 33.63431 -84.61592 7655 ft 260 kts 267°
2026-05-03 21:26 33.63033 -84.63720 8334 ft 266 kts 251°
2026-05-03 21:26 33.62130 -84.65672 9033 ft 271 kts 236°
2026-05-03 21:26 33.60809 -84.67307 9739 ft 277 kts 220°
2026-05-03 21:27 33.59123 -84.68489 10415 ft 284 kts 206°
2026-05-03 21:27 33.57216 -84.69166 11073 ft 290 kts 192°
2026-05-03 21:27 33.55170 -84.69268 11779 ft 305 kts 178°
2026-05-03 21:27 33.52976 -84.68894 12308 ft 331 kts 173°
2026-05-03 21:28 33.50622 -84.68447 12884 ft 351 kts 173°
2026-05-03 21:28 33.48180 -84.67978 13802 ft 359 kts 173°
2026-05-03 21:28 33.45690 -84.67499 14705 ft 364 kts 173°
2026-05-03 21:28 33.43211 -84.66752 15573 ft 373 kts 161°
2026-05-03 21:29 33.40904 -84.65280 16446 ft 381 kts 147°
2026-05-03 21:29 33.38901 -84.63157 17321 ft 388 kts 137°
2026-05-03 21:29 33.36972 -84.60867 18214 ft 393 kts 137°
2026-05-03 21:29 33.35019 -84.58550 19021 ft 398 kts 138°
2026-05-03 21:30 33.33039 -84.56207 19833 ft 402 kts 138°
2026-05-03 21:30 33.31037 -84.53839 20658 ft 407 kts 138°
2026-05-03 21:30 33.29013 -84.51449 21466 ft 412 kts 138°
2026-05-03 21:30 33.26965 -84.49036 22253 ft 416 kts 138°
2026-05-03 21:31 33.24891 -84.46598 23022 ft 421 kts 138°
2026-05-03 21:31 33.22791 -84.44134 23769 ft 425 kts 138°
2026-05-03 21:31 33.20670 -84.41649 24383 ft 429 kts 139°
2026-05-03 21:31 33.18531 -84.39137 24977 ft 434 kts 139°
2026-05-03 21:32 33.16368 -84.36594 25569 ft 438 kts 139°
2026-05-03 21:32 33.14184 -84.34029 26143 ft 443 kts 139°
2026-05-03 21:32 33.11979 -84.31439 26682 ft 447 kts 140°
2026-05-03 21:32 33.09755 -84.28828 27217 ft 451 kts 140°
2026-05-03 21:33 33.07503 -84.26195 27740 ft 455 kts 141°
2026-05-03 21:33 33.05231 -84.23546 28266 ft 460 kts 141°
2026-05-03 21:33 33.02931 -84.20873 28795 ft 463 kts 142°
2026-05-03 21:33 33.00449 -84.18447 29304 ft 460 kts 152°
2026-05-03 21:34 32.97707 -84.16534 29835 ft 455 kts 161°
2026-05-03 21:34 32.94786 -84.15149 30335 ft 451 kts 168°
2026-05-03 21:34 32.91811 -84.13926 30783 ft 454 kts 168°
2026-05-03 21:34 32.88822 -84.12700 31374 ft 453 kts 169°
2026-05-03 21:35 32.85853 -84.11482 32057 ft 450 kts 169°
2026-05-03 21:35 32.82940 -84.10286 32693 ft 448 kts 169°
2026-05-03 21:35 32.80001 -84.09079 32927 ft 446 kts 169°
2026-05-03 21:35 32.77072 -84.07874 32986 ft 445 kts 169°
2026-05-03 21:36 32.71242 -84.05472 32994 ft 442 kts 170°
2026-05-03 21:36 32.65432 -84.03088 32974 ft 441 kts 170°
2026-05-03 21:37 32.59627 -84.00715 32982 ft 441 kts 170°
2026-05-03 21:37 32.53818 -83.98347 32984 ft 441 kts 170°
2026-05-03 21:38 32.48021 -83.95983 32988 ft 441 kts 170°
2026-05-03 21:38 32.42220 -83.93624 32979 ft 440 kts 171°
2026-05-03 21:39 32.36397 -83.91260 32993 ft 450 kts 171°
2026-05-03 21:39 32.30360 -83.88995 33133 ft 458 kts 173°
2026-05-03 21:40 32.24293 -83.86870 33138 ft 458 kts 173°
2026-05-03 21:40 32.18180 -83.84730 33116 ft 458 kts 173°
2026-05-03 21:41 32.12078 -83.82554 33138 ft 458 kts 173°
2026-05-03 21:41 32.05975 -83.80362 33140 ft 458 kts 173°
2026-05-03 21:42 31.99877 -83.78183 33149 ft 458 kts 173°
2026-05-03 21:42 31.93771 -83.76002 33145 ft 458 kts 173°
2026-05-03 21:43 31.87667 -83.73823 33132 ft 458 kts 173°
2026-05-03 21:43 31.81574 -83.71660 33140 ft 457 kts 173°
2026-05-03 21:44 31.76525 -83.69874 33143 ft 457 kts 173°
2026-05-03 21:44 31.70438 -83.67723 33143 ft 457 kts 173°
2026-05-03 21:45 31.64317 -83.65485 33137 ft 459 kts 172°
2026-05-03 21:45 31.58291 -83.63133 33124 ft 460 kts 171°
2026-05-03 21:46 31.52224 -83.60764 33114 ft 460 kts 172°
2026-05-03 21:46 31.46148 -83.58432 33125 ft 459 kts 172°
2026-05-03 21:47 31.40063 -83.56115 33132 ft 460 kts 172°
2026-05-03 21:47 31.33986 -83.53789 33101 ft 460 kts 172°
2026-05-03 21:48 31.27897 -83.51464 33118 ft 461 kts 172°
2026-05-03 21:48 31.21803 -83.49142 33127 ft 461 kts 172°
2026-05-03 21:49 31.15706 -83.46826 33129 ft 461 kts 172°
2026-05-03 21:49 31.09613 -83.44512 33128 ft 461 kts 172°
2026-05-03 21:50 31.03506 -83.42201 33087 ft 460 kts 172°
2026-05-03 21:50 30.97412 -83.39891 33104 ft 461 kts 172°
2026-05-03 21:51 30.91357 -83.37596 33125 ft 460 kts 172°
2026-05-03 21:51 30.85258 -83.35294 33130 ft 461 kts 172°
2026-05-03 21:52 30.79166 -83.33000 33127 ft 461 kts 172°
2026-05-03 21:52 30.73067 -83.30705 33094 ft 461 kts 172°
2026-05-03 21:53 30.67068 -83.27806 33111 ft 471 kts 165°
2026-05-03 21:53 30.61117 -83.24591 33127 ft 471 kts 166°
2026-05-03 21:54 30.55168 -83.21389 33140 ft 472 kts 166°
2026-05-03 21:54 30.49214 -83.18182 33149 ft 472 kts 166°
2026-05-03 21:55 30.43263 -83.14980 33128 ft 471 kts 166°
2026-05-03 21:55 30.37314 -83.11792 33143 ft 471 kts 166°
2026-05-03 21:56 30.31366 -83.08617 33144 ft 471 kts 166°
2026-05-03 21:56 30.25461 -83.05468 33146 ft 470 kts 166°
2026-05-03 21:57 30.19517 -83.02299 33108 ft 470 kts 166°
2026-05-03 21:57 30.13576 -82.99128 33121 ft 470 kts 166°
2026-05-03 21:58 30.07639 -82.95955 33122 ft 470 kts 166°
2026-05-03 21:58 30.01700 -82.92794 33126 ft 470 kts 166°
2026-05-03 21:59 29.95756 -82.89647 33124 ft 470 kts 166°
2026-05-03 21:59 29.89819 -82.86498 33080 ft 470 kts 166°
2026-05-03 22:00 29.83873 -82.83351 33088 ft 470 kts 166°
2026-05-03 22:00 29.77928 -82.80207 33090 ft 470 kts 166°
2026-05-03 22:01 29.71977 -82.77069 33074 ft 470 kts 166°
2026-05-03 22:01 29.66025 -82.73927 33086 ft 471 kts 166°
2026-05-03 22:02 29.60077 -82.70792 33079 ft 470 kts 167°
2026-05-03 22:02 29.54127 -82.67656 33098 ft 470 kts 167°
2026-05-03 22:03 29.48182 -82.64534 33099 ft 470 kts 167°
2026-05-03 22:03 29.42237 -82.61421 33100 ft 469 kts 167°
2026-05-03 22:04 29.36296 -82.58309 33099 ft 469 kts 167°
2026-05-03 22:04 29.30357 -82.55198 33080 ft 469 kts 167°
2026-05-03 22:05 29.24372 -82.52925 33101 ft 442 kts 183°
2026-05-03 22:05 29.21357 -82.52696 33103 ft 429 kts 191°
2026-05-03 22:05 29.18369 -82.52699 33095 ft 429 kts 191°
2026-05-03 22:06 29.12405 -82.52715 33089 ft 429 kts 191°
2026-05-03 22:06 29.06441 -82.52721 33088 ft 429 kts 191°
2026-05-03 22:07 29.00480 -82.52713 33050 ft 428 kts 191°
2026-05-03 22:07 28.94516 -82.52707 33056 ft 428 kts 191°
2026-05-03 22:08 28.88557 -82.52701 33067 ft 428 kts 191°
2026-05-03 22:08 28.82603 -82.52702 33081 ft 428 kts 191°
2026-05-03 22:09 28.76641 -82.52705 33082 ft 428 kts 191°
2026-05-03 22:10 28.67697 -82.52700 33069 ft 429 kts 191°
2026-05-03 22:10 28.61728 -82.52690 33075 ft 429 kts 191°
2026-05-03 22:11 28.55757 -82.52688 33074 ft 429 kts 191°
2026-05-03 22:11 28.49792 -82.52687 33076 ft 429 kts 191°
2026-05-03 22:12 28.43818 -82.52685 33058 ft 430 kts 191°
2026-05-03 22:12 28.37813 -82.52680 33071 ft 432 kts 191°
2026-05-03 22:13 28.31807 -82.52670 33070 ft 432 kts 191°
2026-05-03 22:13 28.25792 -82.52670 33073 ft 432 kts 191°
2026-05-03 22:14 28.19787 -82.52668 33072 ft 432 kts 191°
2026-05-03 22:14 28.13772 -82.52670 33056 ft 433 kts 191°
2026-05-03 22:15 28.07742 -82.52668 33043 ft 434 kts 191°
2026-05-03 22:15 28.01691 -82.52653 33047 ft 437 kts 188°
2026-05-03 22:15 27.98627 -82.52186 33050 ft 455 kts 177°
2026-05-03 22:16 27.95557 -82.51142 33052 ft 461 kts 174°
2026-05-03 22:16 27.89435 -82.48949 33046 ft 462 kts 174°
2026-05-03 22:17 27.83347 -82.46774 33029 ft 463 kts 174°
2026-05-03 22:17 27.77286 -82.44614 33052 ft 449 kts 174°
2026-05-03 22:18 27.71351 -82.42505 33066 ft 446 kts 174°
2026-05-03 22:18 27.65444 -82.40425 33062 ft 445 kts 174°
2026-05-03 22:19 27.59529 -82.38344 33068 ft 445 kts 174°
2026-05-03 22:19 27.54448 -82.36555 33071 ft 445 kts 174°
2026-05-03 22:20 27.52419 -82.35841 33076 ft 445 kts 174°
2026-05-03 22:20 27.48652 -82.34516 33068 ft 445 kts 174°
2026-05-03 22:21 27.42740 -82.32431 33066 ft 445 kts 174°
2026-05-03 22:21 27.36856 -82.30095 33069 ft 460 kts 164°
2026-05-03 22:22 27.31215 -82.26535 33067 ft 465 kts 162°
2026-05-03 22:22 27.25585 -82.22944 33021 ft 465 kts 162°
2026-05-03 22:23 27.19949 -82.19360 33032 ft 466 kts 161°
2026-05-03 22:23 27.14306 -82.15791 33043 ft 466 kts 161°
2026-05-03 22:24 27.08642 -82.12214 33036 ft 472 kts 161°
2026-05-03 22:24 27.05746 -82.10399 32596 ft 480 kts 161°
2026-05-03 22:24 27.02826 -82.08567 32123 ft 483 kts 161°
2026-05-03 22:24 26.99890 -82.06715 31664 ft 485 kts 160°
2026-05-03 22:25 26.96989 -82.04736 31229 ft 494 kts 153°
2026-05-03 22:25 26.94352 -82.02197 30819 ft 507 kts 142°
2026-05-03 22:25 26.91901 -81.99321 30233 ft 511 kts 140°
2026-05-03 22:25 26.89460 -81.96434 29583 ft 512 kts 140°
2026-05-03 22:26 26.87008 -81.93530 28917 ft 513 kts 140°
2026-05-03 22:26 26.84554 -81.90622 28264 ft 514 kts 140°
2026-05-03 22:26 26.82098 -81.87711 27625 ft 515 kts 140°
2026-05-03 22:26 26.79637 -81.84797 27001 ft 516 kts 140°
2026-05-03 22:27 26.77171 -81.81883 26405 ft 516 kts 140°
2026-05-03 22:27 26.74691 -81.78969 26117 ft 517 kts 140°
2026-05-03 22:27 26.72231 -81.76104 26028 ft 517 kts 140°
2026-05-03 22:27 26.69731 -81.73205 26049 ft 518 kts 140°
2026-05-03 22:28 26.67227 -81.70310 26054 ft 518 kts 140°
2026-05-03 22:28 26.64722 -81.67415 26055 ft 518 kts 140°
2026-05-03 22:28 26.62323 -81.64384 26005 ft 525 kts 133°
2026-05-03 22:28 26.60134 -81.61123 26058 ft 525 kts 133°
2026-05-03 22:29 26.57946 -81.57862 26055 ft 525 kts 133°
2026-05-03 22:29 26.55756 -81.54604 25929 ft 523 kts 133°
2026-05-03 22:29 26.53624 -81.51421 25574 ft 499 kts 133°
2026-05-03 22:29 26.51589 -81.48378 25228 ft 479 kts 133°
2026-05-03 22:30 26.49641 -81.45468 24724 ft 455 kts 134°
2026-05-03 22:30 26.47800 -81.42721 24211 ft 431 kts 134°
2026-05-03 22:30 26.46029 -81.40094 23634 ft 415 kts 134°
2026-05-03 22:30 26.44316 -81.37566 22894 ft 402 kts 135°
2026-05-03 22:31 26.42653 -81.35119 22185 ft 389 kts 135°
2026-05-03 22:31 26.41579 -81.33542 21720 ft 382 kts 135°
2026-05-03 22:31 26.39962 -81.31235 21033 ft 374 kts 136°
2026-05-03 22:31 26.38321 -81.29012 20363 ft 368 kts 137°
2026-05-03 22:32 26.36677 -81.26845 19675 ft 364 kts 137°
2026-05-03 22:32 26.35044 -81.24709 18982 ft 361 kts 137°
2026-05-03 22:32 26.33426 -81.22589 18302 ft 358 kts 137°
2026-05-03 22:32 26.31824 -81.20480 17528 ft 354 kts 136°
2026-05-03 22:33 26.30247 -81.18393 16773 ft 350 kts 136°
2026-05-03 22:33 26.28691 -81.16322 16017 ft 347 kts 136°
2026-05-03 22:33 26.27152 -81.14274 15298 ft 343 kts 135°
2026-05-03 22:33 26.25620 -81.12250 14599 ft 341 kts 135°
2026-05-03 22:34 26.24092 -81.10241 13911 ft 338 kts 135°
2026-05-03 22:34 26.22572 -81.08247 13147 ft 337 kts 135°
2026-05-03 22:34 26.21059 -81.06264 12391 ft 335 kts 135°
2026-05-03 22:34 26.19555 -81.04293 11647 ft 332 kts 135°
2026-05-03 22:35 26.18086 -81.02363 11175 ft 319 kts 134°
2026-05-03 22:35 26.16694 -81.00528 10905 ft 304 kts 134°
2026-05-03 22:35 26.15443 -80.98666 10507 ft 300 kts 124°
2026-05-03 22:35 26.14568 -80.96558 10112 ft 301 kts 110°
2026-05-03 22:36 26.14103 -80.94297 9695 ft 300 kts 102°
2026-05-03 22:36 26.13737 -80.92021 9263 ft 297 kts 102°
2026-05-03 22:36 26.13373 -80.89797 8844 ft 294 kts 102°
2026-05-03 22:36 26.13003 -80.87570 8427 ft 291 kts 102°
2026-05-03 22:37 26.12634 -80.85366 8001 ft 288 kts 102°
2026-05-03 22:37 26.12267 -80.83188 7589 ft 285 kts 102°
2026-05-03 22:37 26.11904 -80.81031 7190 ft 282 kts 102°
2026-05-03 22:37 26.11549 -80.78905 6929 ft 279 kts 102°
2026-05-03 22:38 26.11193 -80.76788 6670 ft 277 kts 102°
2026-05-03 22:38 26.10842 -80.74694 6414 ft 274 kts 102°
2026-05-03 22:38 26.10496 -80.72622 6139 ft 271 kts 102°
2026-05-03 22:38 26.10151 -80.70562 5867 ft 270 kts 102°
2026-05-03 22:39 26.09808 -80.68519 5596 ft 267 kts 102°
2026-05-03 22:39 26.09467 -80.66500 5329 ft 263 kts 102°
2026-05-03 22:39 26.09131 -80.64517 5077 ft 258 kts 102°
2026-05-03 22:39 26.08807 -80.62597 4984 ft 246 kts 102°
2026-05-03 22:40 26.08497 -80.60753 4995 ft 242 kts 102°
2026-05-03 22:40 26.08187 -80.58918 4997 ft 241 kts 102°
2026-05-03 22:40 26.07877 -80.57086 4995 ft 241 kts 102°
2026-05-03 22:40 26.07566 -80.55259 5011 ft 240 kts 99°
2026-05-03 22:41 26.07259 -80.53437 4992 ft 239 kts 102°
2026-05-03 22:41 26.06950 -80.51619 4989 ft 240 kts 103°
2026-05-03 22:41 26.06742 -80.49768 4983 ft 243 kts 92°
2026-05-03 22:41 26.06739 -80.47884 4989 ft 243 kts 91°
2026-05-03 22:42 26.06735 -80.46048 4993 ft 232 kts 91°
2026-05-03 22:42 26.06729 -80.44295 4941 ft 223 kts 91°
2026-05-03 22:42 26.06722 -80.42540 4567 ft 231 kts 91°
2026-05-03 22:42 26.06715 -80.40787 4330 ft 222 kts 91°
2026-05-03 22:43 26.06707 -80.39085 3923 ft 217 kts 91°
2026-05-03 22:43 26.06699 -80.37431 3537 ft 211 kts 90°
2026-05-03 22:43 26.06691 -80.35815 3146 ft 205 kts 90°
2026-05-03 22:43 26.06684 -80.34280 2983 ft 191 kts 90°
2026-05-03 22:44 26.06677 -80.32851 2966 ft 186 kts 90°
2026-05-03 22:44 26.06670 -80.31420 2665 ft 183 kts 90°
2026-05-03 22:44 26.06662 -80.30014 2371 ft 181 kts 90°
2026-05-03 22:44 26.06655 -80.28627 2072 ft 172 kts 89°
2026-05-03 22:45 26.06648 -80.27370 1828 ft 154 kts 89°
2026-05-03 22:45 26.06642 -80.26206 1779 ft 149 kts 89°
2026-05-03 22:45 26.06637 -80.25060 1634 ft 147 kts 89°
2026-05-03 22:45 26.06631 -80.23939 1437 ft 142 kts 88°
2026-05-03 22:46 26.06626 -80.22850 1252 ft 140 kts 89°
2026-05-03 22:46 26.06621 -80.21769 1067 ft 139 kts 89°
2026-05-03 22:46 26.06615 -80.20697 886 ft 138 kts 88°
2026-05-03 22:46 26.06597 -80.19636 732 ft 137 kts 89°
2026-05-03 22:47 26.06583 -80.18576 568 ft 137 kts 87°
2026-05-03 22:47 26.06574 -80.17519 368 ft 137 kts 86°
2026-05-03 22:47 26.06579 -80.16455 198 ft 138 kts 87°
2026-05-03 22:47 26.06579 -80.15424 28 ft 124 kts 85°
2026-05-03 22:48 26.06581 -80.14602 37 ft 88 kts 90°
2026-05-03 22:48 26.06577 -80.13973 75 ft 58 kts 90°
2026-05-03 22:48 26.06650 -80.13762 72 ft 13 kts 35°
2026-05-03 22:48 26.06690 -80.13722 66 ft 0 kts 21°
2026-05-03 22:49 26.06709 -80.13720 70 ft 5 kts 357°
2026-05-03 22:49 26.06744 -80.13758 67 ft 9 kts 278°
2026-05-03 22:49 26.06744 -80.13786 75 ft 4 kts 267°
2026-05-03 22:49 26.06742 -80.13827 69 ft 1 kts 267°
2026-05-03 22:50 26.06742 -80.13839 75 ft 4 kts 267°
2026-05-03 22:50 26.06741 -80.13887 75 ft 9 kts 270°
2026-05-03 22:50 26.06741 -80.13976 75 ft 14 kts 266°
2026-05-03 22:50 26.06710 -80.14061 70 ft 15 kts 242°
2026-05-03 22:51 26.06684 -80.14131 56 ft 13 kts 259°
2026-05-03 22:51 26.06677 -80.14250 49 ft 16 kts 271°
2026-05-03 22:51 26.06677 -80.14400 48 ft 22 kts 269°
2026-05-03 22:51 26.06676 -80.14549 43 ft 17 kts 270°
2026-05-03 22:52 26.06676 -80.14659 33 ft 12 kts 270°
2026-05-03 22:52 26.06677 -80.14778 26 ft 18 kts 271°
2026-05-03 22:52 26.06697 -80.14898 19 ft 4 kts 300°
2026-05-03 22:52 26.06743 -80.14920 17 ft 12 kts 11°
2026-05-03 22:53 26.06771 -80.14858 16 ft 12 kts 96°
2026-05-03 22:53 26.06765 -80.14752 16 ft 12 kts 91°
2026-05-03 22:53 26.06765 -80.14746 16 ft 0 kts 90°
2026-05-03 22:54 26.06765 -80.14728 16 ft 5 kts 90°
2026-05-03 22:54 26.06765 -80.14672 16 ft 8 kts 90°
2026-05-03 22:54 26.06766 -80.14627 16 ft 6 kts 89°
2026-05-03 22:54 26.06800 -80.14586 16 ft 6 kts
2026-05-03 22:55 26.06833 -80.14604 16 ft 7 kts 326°
2026-05-03 22:55 26.06880 -80.14652 17 ft 11 kts 319°
2026-05-03 22:55 26.06908 -80.14676 16 ft 2 kts 332°
2026-05-03 22:55 26.06930 -80.14669 16 ft 5 kts 43°
2026-05-03 22:56 26.06934 -80.14626 16 ft 5 kts 91°
2026-05-03 22:56 26.06934 -80.14610 16 ft 0 kts 91°